Location: Newark
(0.5300°S, 127.4800°E)
Time: 22:41:45
(UTC+00:00)

Vanguard 3 - Pass Details

Date: 24 September 2019
Orbit: 508 x 3262 km, 33.3° (Epoch: 20 October)

Event Time Altitude Azimuth Distance (km) Brightness Sun altitude
Rises 09:17:33 0° 277° (W) 5,925 14.3 1.2°
Reaches altitude 10° 09:23:36 10° 262° (W) 4,325 13.0 -0.3°
Maximum altitude 09:30:34 19° 222° (SW) 2,920 10.6 -2.1°
Drops below altitude 10° 09:35:37 10° 179° (S) 2,958 10.0 -3.3°
Sets 09:38:44 0° 160° (SSE) 3,546 10.2 -4.1°
